Location: ???? ?????????
(31.1304°N, 31.7111°E)
Time: 12:05:55
(UTC+00:00)

Vanguard 1 Rocket - All Passes

Search period start: 07 March 2021 00:00
Search period end: 17 March 2021 00:00
Orbit: 654 x 4223 km, 34.3° (Epoch: 07 March)

Date Brightness Start Highest point End Pass type
(mag) Time Alt. Az. Time Alt. Az. Time Alt. Az.
07 Mar - 00:56:01 10° W 01:22:10 83° N 01:44:08 10° E visible
07 Mar - 03:29:48 10° WNW 03:55:38 72° SSW 04:11:30 10° SE visible
07 Mar - 06:06:56 10° W 06:23:01 28° SW 06:33:23 10° S daylight
07 Mar - 18:49:54 10° SSW 19:02:12 36° SE 19:21:42 10° ENE visible
07 Mar - 21:13:08 10° WSW 21:31:02 78° SSE 21:57:38 10° ENE visible
07 Mar - 23:41:41 10° W 00:05:36 82° N 00:30:26 10° E visible
08 Mar - 02:14:03 10° WNW 02:40:54 86° SSW 02:59:53 10° ESE visible
08 Mar - 04:49:06 10° WNW 05:11:05 46° SW 05:24:27 10° SSE daylight
08 Mar - 17:42:11 10° SSE 17:50:39 19° ESE 18:02:31 10° E visible
08 Mar - 20:01:58 10° SW 20:16:55 62° SE 20:41:39 10° ENE visible
08 Mar - 22:28:20 10° WSW 22:49:12 86° NNW 23:15:49 10° E visible
09 Mar - 00:59:01 10° W 01:25:03 86° NNE 01:47:13 10° ESE visible
09 Mar - 03:32:32 10° WNW 03:57:57 64° SW 04:14:09 10° SE visible
09 Mar - 06:11:03 10° W 06:24:52 22° SW 06:34:36 10° S daylight
09 Mar - 18:51:55 10° SSW 19:04:09 43° SE 19:24:50 10° ENE visible
09 Mar - 21:16:00 10° WSW 21:33:37 85° SSE 22:00:24 10° ENE visible
09 Mar - 23:44:47 10° W 00:08:33 82° N 00:33:31 10° E visible
10 Mar - 02:16:51 10° WNW 02:43:29 79° SSW 03:02:45 10° ESE visible
10 Mar - 04:52:12 10° WNW 05:13:02 38° SW 05:26:29 10° SSE daylight
10 Mar - 17:43:16 10° S 17:52:32 25° SE 18:06:50 10° E visible
10 Mar - 20:04:38 10° SW 20:19:16 70° SSE 20:44:21 10° ENE visible
10 Mar - 22:31:27 10° W 22:52:05 83° N 23:18:47 10° E visible
11 Mar - 01:01:58 10° WNW 01:27:49 90° NNE 01:50:14 10° ESE visible
11 Mar - 03:35:20 10° WNW 04:00:05 55° SW 04:16:34 10° SE visible
11 Mar - 06:16:18 10° W 06:26:42 16° WSW 06:34:49 10° SSW daylight
11 Mar - 16:39:32 10° SE 16:41:40 11° ESE 16:44:00 10° ESE visible
11 Mar - 18:54:15 10° SSW 19:06:16 52° SE 19:27:44 10° ENE visible
11 Mar - 21:19:02 10° WSW 21:36:22 89° NNW 22:03:13 10° ENE visible
11 Mar - 23:47:53 10° W 00:11:27 83° N 00:36:34 10° E visible
12 Mar - 02:19:39 10° WNW 02:45:52 72° SSW 03:05:26 10° SE visible
12 Mar - 04:55:40 10° WNW 05:14:51 31° SW 05:28:07 10° S daylight
12 Mar - 17:44:59 10° S 17:54:31 32° SE 18:10:27 10° ENE visible
12 Mar - 20:07:29 10° WSW 20:21:48 79° SSE 20:47:02 10° ENE visible
12 Mar - 22:34:37 10° W 22:55:02 82° N 23:21:47 10° E visible
13 Mar - 01:04:54 10° WNW 01:30:28 85° SSW 01:53:06 10° ESE visible
13 Mar - 03:38:15 10° WNW 04:02:04 47° SW 04:18:44 10° SSE visible
13 Mar - 06:25:11 10° WSW 06:28:33 11° WSW 06:31:40 10° SW daylight
13 Mar - 16:37:53 10° SSE 16:43:39 16° ESE 16:51:23 10° E visible
13 Mar - 18:56:49 10° SW 19:08:34 61° SE 19:30:29 10° ENE visible
13 Mar - 21:22:09 10° W 21:39:14 85° N 22:06:04 10° E visible
13 Mar - 23:50:58 10° W 00:14:18 86° NNE 00:39:33 10° ESE visible
14 Mar - 02:22:28 10° WNW 02:48:05 64° SW 03:07:54 10° SE visible
14 Mar - 04:59:44 10° W 05:16:38 24° SW 05:29:12 10° S daylight
14 Mar - 17:47:07 10° SSW 17:56:37 40° SE 18:13:37 10° ENE visible
14 Mar - 20:10:29 10° WSW 20:24:31 86° SSE 20:49:44 10° ENE visible
14 Mar - 22:37:47 10° W 22:58:00 82° N 23:24:47 10° E visible
15 Mar - 01:07:47 10° WNW 01:32:57 78° SSW 01:55:48 10° SE visible
15 Mar - 03:41:26 10° WNW 04:03:56 40° SW 04:20:33 10° SSE visible
15 Mar - 16:38:50 10° S 16:45:40 22° SE 16:55:59 10° E visible
15 Mar - 18:59:36 10° SW 19:11:04 70° SSE 19:33:10 10° ENE visible
15 Mar - 21:25:20 10° W 21:42:12 82° N 22:08:59 10° E visible
15 Mar - 23:53:59 10° WNW 00:17:03 89° SSW 00:42:26 10° ESE visible
16 Mar - 02:25:22 10° WNW 02:50:10 56° SW 03:10:07 10° SSE visible
16 Mar - 05:04:49 10° W 05:18:25 18° SW 05:29:24 10° SSW daylight
16 Mar - 17:49:33 10° SSW 17:58:53 49° SE 18:16:32 10° ENE visible
16 Mar - 20:13:36 10° WSW 20:27:23 88° NNW 20:52:29 10° ENE visible
16 Mar - 22:40:56 10° W 23:00:55 84° N 23:27:45 10° E visible
